Location: Joplin
(37.0842°N, 94.5131°W)
Time: 22:52:38
(UTC-05:00)

Envisat - Pass Details

Date: 28 September 2021
Orbit: 764 x 766 km, 98.2° (Epoch: 27 October)

Event Time Altitude Azimuth Distance (km) Brightness Sun altitude
Rises 05:28:50 0° 27° (NNE) 3,235 6.8 -21.1°
Reaches altitude 10° 05:31:36 10° 42° (NE) 2,304 6.2 -20.5°
Maximum altitude 05:35:37 23° 95° (E) 1,570 5.4 -19.7°
Drops below altitude 10° 05:39:36 10° 147° (SSE) 2,291 5.7 -19.0°
Sets 05:42:20 0° 161° (SSE) 3,212 6.3 -18.4°
